"Time","Temp","Dewpoint","Humidity","Pressure","Direction","Speed","Gust","Precip","PrecipRate"
"00:04:59","44.5","42.3","92","30.24","343","0.3","2","0.00","0.00"
"00:09:57","44.5","42.3","92","30.24","343","0.1","1.2","0.00","0.00"
"00:14:59","44.5","42.3","92","30.24","343","0","1.2","0.00","0.00"
"00:19:56","44.5","42.3","92","30.24","343","0","0","0.00","0.00"
"00:24:56","44.3","42.1","92","30.24","343","0","0","0.00","0.00"
"00:29:59","44.2","42","92","30.24","343","0","0","0.00","0.00"
"00:34:57","44","41.8","92","30.24","343","0","0","0.00","0.00"
"00:39:53","44","41.8","92.2","30.24","343","0","0","0.00","0.00"
"00:44:59","43.9","42","93","30.25","343","0.2","1.2","0.00","0.00"
"00:49:59","44","42.1","93","30.25","343","0.2","2","0.00","0.00"
"00:54:57","44","42.1","93","30.25","343","0","0","0.00","0.00"
"00:59:59","44","42.1","93","30.25","343","0","0","0.00","0.00"
"01:04:56","44","42.1","93","30.24","343","0","0","0.00","0.00"
"01:09:56","44","42.1","93","30.24","343","0","0","0.00","0.00"
"01:14:56","44","42.2","93.3","30.24","343","0","0","0.00","0.00"
"01:19:56","43.9","42","93","30.24","343","0","0","0.00","0.00"
"01:24:58","43.7","41.8","93","30.24","343","0","0","0.00","0.00"
"01:29:56","43.6","41.7","93","30.24","343","0","0","0.00","0.00"
"01:34:58","43.4","41.5","93","30.24","343","0","0","0.00","0.00"
"01:39:59","43.3","41.4","93","30.24","343","0","0","0.00","0.00"
"01:44:57","43.2","41.3","93","30.25","343","0","0","0.00","0.00"
"01:49:56","43.1","41.2","93","30.25","343","0.1","1.2","0.00","0.00"
"01:54:56","43","41.1","93.1","30.25","343","0","1.2","0.00","0.00"
"01:59:59","42.9","41.3","94","30.25","343","0","1","0.00","0.00"
"02:04:52","42.9","41.3","94","30.25","343","0.1","1.2","0.00","0.00"
"02:09:56","43","41.4","94","30.25","343","0","0","0.00","0.00"
"02:14:58","42.9","41.3","94","30.25","343","0","1.2","0.00","0.00"
"02:19:59","42.9","41.3","94","30.24","343","0","1.2","0.00","0.00"
"02:24:59","42.9","41.3","94","30.24","343","0","0","0.00","0.00"
"02:29:57","42.8","41.2","94","30.24","343","0","0","0.00","0.00"
"02:34:56","42.8","41.2","94","30.23","343","0","0","0.00","0.00"
"02:39:56","42.7","41.1","94","30.23","343","0","0","0.00","0.00"
"02:44:59","42.6","40.9","93.7","30.23","343","0","0","0.00","0.00"
"02:49:58","42.4","40.5","93","30.23","343","0","0","0.00","0.00"
"02:54:57","42.2","40.4","93.3","30.23","343","0","0","0.00","0.00"
"02:59:57","42","40.4","93.9","30.23","343","0","0","0.00","0.00"
"03:04:41","41.9","40.3","94","30.22","343","0","1.2","0.00","0.00"
"03:09:58","41.7","40.1","94","30.22","343","0","1.2","0.00","0.00"
"03:14:58","41.6","40","94","30.22","343","0","1.2","0.00","0.00"
"03:19:58","41.6","40","94","30.22","343","0","0","0.00","0.00"
"03:24:57","41.5","39.9","94","30.22","343","0","0","0.00","0.00"
"03:29:59","41.4","39.8","94","30.23","343","0","0","0.00","0.00"
"03:34:58","41.3","39.9","94.7","30.23","343","0","0","0.00","0.00"
"03:39:59","41.3","39.9","94.6","30.23","343","0.5","2.3","0.00","0.00"
"03:44:58","41.3","40","95","30.23","343","0.9","2.3","0.00","0.00"
"03:49:57","41.4","40.1","95","30.23","343","0.1","2.3","0.00","0.00"
"03:54:59","41.5","40.2","95","30.23","343","0","0","0.00","0.00"
"03:59:58","41.5","40.2","95","30.23","343","0","0","0.00","0.00"
"04:04:59","41.5","40.2","95","30.23","343","0","0","0.00","0.00"
"04:09:56","41.5","40.2","95","30.23","343","0","0","0.00","0.00"
"04:14:57","41.5","40.2","95","30.24","343","0","0","0.00","0.00"
"04:19:57","41.3","39.8","94.2","30.24","343","0","0","0.00","0.00"
"04:24:56","41.2","39.6","94","30.24","343","0","0","0.00","0.00"
"04:29:59","41.1","39.5","94","30.24","343","0","0","0.00","0.00"
"04:34:57","40.9","39.3","94","30.24","343","0","0","0.00","0.00"
"04:39:57","40.8","39.4","94.7","30.24","343","0","0","0.00","0.00"
"04:44:59","40.7","39.4","95","30.24","343","0","0","0.00","0.00"
"04:49:57","40.7","39.4","95","30.24","343","0","0","0.00","0.00"
"04:54:58","40.6","39.3","95","30.24","343","0","0","0.00","0.00"
"04:59:58","40.6","39.3","95","30.24","343","0","0","0.00","0.00"
"05:04:58","40.6","39.3","95","30.24","343","0","0","0.00","0.00"
"05:09:59","40.5","39.2","95","30.24","343","0","0","0.00","0.00"
"05:14:59","40.6","39.3","95","30.24","343","0","0","0.00","0.00"
"05:19:58","40.6","39.3","95","30.24","343","0","0","0.00","0.00"
"05:24:58","40.5","39.2","95","30.24","343","0","0","0.00","0.00"
"05:29:57","40.5","39.2","95","30.24","343","0","0","0.00","0.00"
"05:34:58","40.4","39.1","95","30.24","343","0","0","0.00","0.00"
"05:39:59","40.2","38.9","95","30.24","343","0","0","0.00","0.00"
"05:44:56","40","38.5","94.6","30.25","343","0","0","0.00","0.00"
"05:49:58","39.8","38.5","95","30.25","343","0","0","0.00","0.00"
"05:54:58","39.8","38.5","95","30.25","343","0","0","0.00","0.00"
"05:59:58","40","38.9","95.6","30.25","343","0","0","0.00","0.00"
"06:04:56","40.1","39.1","96","30.25","343","0","0","0.00","0.00"
"06:09:58","40.1","39.1","95.9","30.25","343","0","0","0.00","0.00"
"06:14:56","40","38.7","95","30.25","343","0","0","0.00","0.00"
"06:19:59","39.9","38.6","95","30.25","343","0","0","0.00","0.00"
"06:24:57","39.8","38.5","95","30.25","343","0","0","0.00","0.00"
"06:29:56","39.7","38.4","95","30.25","343","0","0","0.00","0.00"
"06:34:59","39.6","38.3","95","30.24","343","0","0","0.00","0.00"
"06:39:59","39.6","38.3","95.1","30.24","343","0","0","0.00","0.00"
"06:44:57","39.7","38.6","95.9","30.25","343","0","0","0.00","0.00"
"06:49:56","39.6","38.3","95","30.25","343","0","0","0.00","0.00"
"06:54:59","39.5","38.2","95","30.25","343","0","0","0.00","0.00"
"06:59:56","39.4","38.1","95","30.25","343","0","0","0.00","0.00"
"07:04:57","39.3","38","95","30.25","343","0","0","0.00","0.00"
"07:09:59","39.3","38","95","30.25","343","0","0","0.00","0.00"
"07:14:59","39.3","38.3","95.8","30.25","343","0","0","0.00","0.00"
"07:19:58","39.4","38.4","96","30.25","343","0","0","0.00","0.00"
"07:24:57","39.5","38.5","96","30.25","343","0","0","0.00","0.00"
"07:29:58","39.7","38.7","96","30.25","343","0","0","0.00","0.00"
"07:34:59","40","39.1","96.7","30.25","343","0","0","0.00","0.00"
"07:39:58","40.4","39.6","97","30.25","343","0","0","0.00","0.00"
"07:44:56","40.7","39.9","97","30.26","343","0","0","0.00","0.00"
"07:49:58","41.2","40.4","97","30.26","343","0","0","0.00","0.00"
"07:54:56","41.7","40.8","97","30.26","343","0","0","0.00","0.00"
"07:59:59","42.1","41.3","97","30.26","343","0","0","0.00","0.00"
"08:04:59","42.7","41.9","97","30.26","343","0","0","0.00","0.00"
"08:09:56","43.6","43","97.8","30.26","343","0","0","0.00","0.00"
"08:14:56","44.5","44","98","30.26","86","0","0","0.00","0.00"
"08:19:58","45.2","44.4","97.1","30.26","86","0","0","0.00","0.00"
"08:24:56","45.9","45.1","96.9","30.26","86","0","0","0.00","0.00"
"08:29:56","46.7","45.5","95.6","30.26","86","0","0","0.00","0.00"
"08:34:58","47.2","45.7","94.3","30.25","86","0","0","0.00","0.00"
"08:39:57","47.9","46.1","93.2","30.25","86","0","0","0.00","0.00"
"08:44:59","48.6","46.2","91.3","30.26","86","0","0","0.00","0.00"
"08:49:55","49.4","46.6","90.3","30.26","86","0","0","0.00","0.00"
"08:54:59","50.4","46.9","87.8","30.26","5","0.4","2.3","0.00","0.00"
"08:59:56","51.4","47.1","85.4","30.26","5","0.5","2.3","0.00","0.00"
"09:04:56","52.1","47.3","83.8","30.25","5","0.6","2.3","0.00","0.00"
"09:09:56","52.6","47.4","82.3","30.25","5","0.7","3","0.00","0.00"
"09:14:56","52.9","47.5","81.7","30.25","69","1.7","4","0.00","0.00"
"09:19:58","53.4","47.9","81.7","30.24","110","1.8","4","0.00","0.00"
"09:24:56","53.9","48.3","81.3","30.24","109","1.6","4","0.00","0.00"
"09:29:57","54.4","48.6","80.7","30.24","108","1.8","4","0.00","0.00"
"09:34:58","54.8","48.8","80.5","30.24","109","1.5","3.5","0.00","0.00"
"09:39:57","55.1","49.6","81.5","30.24","110","1","3.5","0.00","0.00"
"09:44:57","55.5","49.5","80.1","30.24","111","2.7","5","0.00","0.00"
"09:49:57","55.9","49.9","80.2","30.23","110","2.8","5","0.00","0.00"
"09:54:58","56.4","50.8","81.3","30.23","133","1.3","4.6","0.00","0.00"
"09:59:57","57.2","51.4","80.8","30.23","152","2.1","5","0.00","0.00"
"10:04:57","57.8","51.6","79.8","30.22","153","2.2","5","0.00","0.00"
"10:09:57","58.2","51.6","78.8","30.22","117","2.4","4.6","0.00","0.00"
"10:14:56","58.6","52","78.9","30.22","104","2.7","7","0.00","0.00"
"10:19:56","58.8","52.2","78.8","30.22","119","2.7","6","0.00","0.00"
"10:24:57","59.2","52.8","79.3","30.22","165","2.2","5","0.00","0.00"
"10:29:57","59.9","53","78.1","30.22","126","2.4","5","0.00","0.00"
"10:34:58","60.4","53.5","77.9","30.21","148","2.2","5","0.00","0.00"
"10:39:56","60.8","53.8","77.6","30.21","127","2.4","5","0.00","0.00"
"10:44:56","61.2","54.1","77.7","30.21","128","1.5","4","0.00","0.00"
"10:49:57","61.9","54.7","77.4","30.21","164","2.1","5","0.00","0.00"
"10:54:58","62.5","54.8","76","30.21","118","2.6","6","0.00","0.00"
"10:59:58","62.6","54.6","75.2","30.21","167","3.3","7","0.00","0.00"
"11:04:57","62.3","54.4","75.3","30.20","155","3.9","9","0.00","0.00"
"11:09:58","62.1","54.3","75.8","30.20","184","4.1","9.2","0.00","0.00"
"11:14:56","61.9","54.5","76.6","30.20","176","3.4","11","0.00","0.00"
"11:19:58","61.8","54.5","77.2","30.19","125","2.3","6","0.00","0.00"
"11:24:58","62","54.7","77.1","30.19","132","2.6","6","0.00","0.00"
"11:29:59","62.2","55.1","77.6","30.19","121","3.3","9.2","0.00","0.00"
"11:34:56","62.3","55.1","77.2","30.18","142","2.7","6","0.00","0.00"
"11:39:57","62.5","55.5","77.8","30.18","181","2.5","6","0.00","0.00"
"11:44:58","63","56","77.9","30.18","123","1.6","5","0.00","0.00"
"11:49:58","63.4","56","77","30.17","163","2.9","9.2","0.00","0.00"
"11:54:56","63.5","56.1","76.8","30.17","136","2.9","9.2","0.00","0.00"
"11:59:57","63.8","56.4","77","30.17","116","3.2","7","0.00","0.00"
"12:04:56","64.1","56.5","76.5","30.16","125","4","13","0.00","0.00"
"12:09:57","64.2","56.8","76.9","30.16","117","3.9","10.4","0.00","0.00"
"12:14:56","65","57.1","75.4","30.16","147","3.7","7","0.00","0.00"
"12:19:57","65.5","57.1","74.2","30.15","172","4.2","10.4","0.00","0.00"
"12:24:59","65.8","57.1","73.4","30.15","131","3.2","10","0.00","0.00"
"12:29:56","65.4","56.4","72.6","30.15","144","3.4","9","0.00","0.00"
"12:34:56","64.9","56.1","73.2","30.15","146","4.3","10.4","0.00","0.00"
"12:39:57","64.7","56.2","74","30.15","162","3.4","10.4","0.00","0.00"
"12:44:58","64.8","56.1","73.7","30.15","161","3.7","10.4","0.00","0.00"
"12:49:59","64.9","56.3","73.6","30.15","134","4.9","11.5","0.00","0.00"
"12:54:59","65.6","57.1","74","30.15","155","3.6","10","0.00","0.00"
"12:59:56","66.6","57.5","72.5","30.15","160","2.8","6","0.00","0.00"
"13:04:59","67.2","57.5","71","30.14","124","5","11.5","0.00","0.00"
"13:09:59","67.5","57.5","70.2","30.14","153","4.2","11.5","0.00","0.00"
"13:14:58","67.7","57.6","70.1","30.14","144","4.5","11.5","0.00","0.00"
"13:19:59","67.4","57.2","69.8","30.13","166","4.6","9.2","0.00","0.00"
"13:24:59","67","57.2","70.8","30.13","134","4.6","10.4","0.00","0.00"
"13:29:56","66.7","57","71.1","30.13","109","5.3","14","0.00","0.00"
"13:34:56","66.6","57.3","71.8","30.12","132","4","9.2","0.00","0.00"
"13:39:58","66.7","57.2","71.6","30.12","111","4.7","10.4","0.00","0.00"
"13:44:56","66.7","57.3","71.7","30.12","114","5.6","11","0.00","0.00"
"13:49:57","66.6","57","71.2","30.12","109","6.3","14","0.00","0.00"
"13:54:57","66.5","57.4","72.3","30.12","107","4","12","0.00","0.00"
"13:59:58","66.8","57.2","71.4","30.12","129","5.1","11.5","0.00","0.00"
"14:04:57","67","57.9","72.5","30.11","120","3.2","9.2","0.00","0.00"
"14:09:57","67","57.3","70.8","30.11","116","5.1","13","0.00","0.00"
"14:14:56","66.8","57.4","71.7","30.11","108","4.3","12.7","0.00","0.00"
"14:19:57","66.6","57.3","72","30.10","109","4.6","12","0.00","0.00"
"14:24:57","66.4","56.8","71.4","30.10","128","6.7","13","0.00","0.00"
"14:29:58","66.2","56.9","72","30.10","117","5.5","11.5","0.00","0.00"
"14:34:57","66.1","57.2","73","30.09","133","4.2","9.2","0.00","0.00"
"14:39:59","66.5","57.5","72.8","30.09","139","4.2","10","0.00","0.00"
"14:44:56","66.9","57.6","72","30.09","123","4.4","11","0.00","0.00"
"14:49:57","67","57.7","72","30.08","124","5.1","11.5","0.00","0.00"
"14:54:58","67.2","57.8","71.8","30.08","157","3.3","11.5","0.00","0.00"
"14:59:59","67.2","57.8","71.5","30.08","121","4.3","10.4","0.00","0.00"
"15:04:59","67","57.7","72","30.08","129","4.5","11.5","0.00","0.00"
"15:09:59","66.9","57.8","72.6","30.08","157","3.1","6","0.00","0.00"
"15:14:57","67.2","58.6","73.8","30.08","142","1.9","4","0.00","0.00"
"15:19:57","68","58.7","72.2","30.08","124","3.6","8","0.00","0.00"
"15:24:58","68.2","58.1","70.4","30.08","147","4.5","13","0.00","0.00"
"15:29:59","68.3","58.4","70.7","30.08","165","3.5","11.5","0.00","0.00"
"15:34:58","68.6","58.5","70.2","30.08","116","5.1","10.4","0.00","0.00"
"15:39:56","68.5","58.5","70.5","30.08","124","4.5","12","0.00","0.00"
"15:44:57","68.4","58.6","71","30.08","131","3.1","9.2","0.00","0.00"
"15:49:58","68.2","58.4","71.1","30.07","133","3.1","7","0.00","0.00"
"15:54:56","67.9","58.5","72","30.07","134","3.4","8.1","0.00","0.00"
"15:59:56","67.6","58.3","72.1","30.07","136","5.6","12","0.00","0.00"
"16:04:56","67.6","58.5","72.8","30.07","151","2.7","10.4","0.00","0.00"
"16:09:56","67.6","58.5","72.8","30.07","120","2.9","8","0.00","0.00"
"16:14:58","67.6","58.3","72.3","30.07","118","4.8","10.4","0.00","0.00"
"16:19:56","67.5","58.2","72.2","30.07","149","4.1","11.5","0.00","0.00"
"16:24:57","67.3","58","72","30.07","139","4.6","12","0.00","0.00"
"16:29:57","67.1","58.1","72.7","30.07","115","4","10.4","0.00","0.00"
"16:34:58","66.8","57.9","73","30.07","147","4.4","10.4","0.00","0.00"
"16:39:58","66.6","57.7","73","30.07","124","4.5","10.4","0.00","0.00"
"16:44:56","66.4","57.7","73.6","30.07","133","4","11","0.00","0.00"
"16:49:58","66.2","57.7","74","30.07","122","3.6","10.4","0.00","0.00"
"16:54:58","66","57.5","74","30.07","106","3.4","9.2","0.00","0.00"
"16:59:56","65.8","57.5","74.5","30.07","127","3.8","9.2","0.00","0.00"
"17:04:58","65.5","57.4","75","30.06","133","3","7","0.00","0.00"
"17:09:58","65.3","57.3","75.3","30.06","128","3.1","9.2","0.00","0.00"
"17:14:59","65.1","57.3","76","30.06","137","3","8.1","0.00","0.00"
"17:19:58","64.9","57.2","76","30.06","112","2.5","7","0.00","0.00"
"17:24:57","64.8","57.2","76.2","30.06","143","3.7","10.4","0.00","0.00"
"17:29:56","64.7","57.3","77","30.06","117","2.7","7","0.00","0.00"
"17:34:59","64.6","57.2","77","30.06","135","3.7","9.2","0.00","0.00"
"17:39:59","64.5","57.1","77","30.06","143","3.8","11","0.00","0.00"
"17:44:58","64.4","57","77.2","30.06","164","2.6","7","0.00","0.00"
"17:49:57","64.2","57.2","78","30.06","139","2.8","10","0.00","0.00"
"17:54:59","64.1","57.1","78","30.06","132","3.9","11.5","0.00","0.00"
"17:59:58","64","56.8","77.6","30.07","160","3.3","10.4","0.00","0.00"
"18:04:58","64","56.6","77","30.07","162","3.1","8.1","0.00","0.00"
"18:09:58","64","56.6","77","30.07","146","4.2","11.5","0.00","0.00"
"18:14:57","63.9","56.5","77","30.07","144","4","9.2","0.00","0.00"
"18:19:58","63.8","56.4","76.8","30.07","132","3.4","6","0.00","0.00"
"18:24:56","63.7","56.4","77","30.07","136","3","9","0.00","0.00"
"18:29:58","63.6","56.3","77","30.07","122","3.1","7","0.00","0.00"
"18:34:56","63.4","56.1","77","30.07","129","2.3","6","0.00","0.00"
"18:39:59","63.3","56.1","77.3","30.07","126","2.2","6","0.00","0.00"
"18:44:59","63.2","56.2","77.8","30.07","117","2.7","6","0.00","0.00"
"18:49:56","63.2","56.2","78","30.06","111","1.6","5.8","0.00","0.00"
"18:54:59","63.1","56.1","78","30.06","123","2.1","5","0.00","0.00"
"18:59:56","63.1","56.1","78","30.06","141","1","4","0.00","0.00"
"19:04:57","63.1","56.3","78.4","30.06","140","1.2","4","0.00","0.00"
"19:09:57","63","56.4","79","30.06","122","1","3.5","0.00","0.00"
"19:14:57","63","56.4","79","30.06","128","1.8","7","0.00","0.00"
"19:19:58","63","56.4","79","30.06","144","2.3","6","0.00","0.00"
"19:24:57","63.1","56.5","79","30.06","124","2.2","6","0.00","0.00"
"19:29:59","63.1","56.5","79","30.06","115","2.2","4","0.00","0.00"
"19:34:56","63.1","56.5","79","30.05","115","2.4","7","0.00","0.00"
"19:39:57","63.1","56.5","79","30.05","105","3.1","7","0.00","0.00"
"19:44:58","63.2","56.7","79.6","30.05","113","2.9","6","0.00","0.00"
"19:49:56","63.1","56.8","80","30.05","118","1.9","5","0.00","0.00"
"19:54:58","63.1","57.1","80.7","30.05","125","2","7","0.00","0.00"
"19:59:56","63.1","57.2","81","30.05","147","1.6","5","0.00","0.00"
"20:04:56","63.1","57.2","81.1","30.05","122","2.7","9.2","0.00","0.00"
"20:09:56","63.1","57.5","82","30.05","129","1.8","5","0.00","0.00"
"20:14:56","63","57.4","82","30.05","115","1.7","6","0.00","0.00"
"20:19:58","62.9","57.6","82.8","30.03","111","1.7","7","0.00","0.00"
"20:24:57","62.8","57.6","83","30.03","146","2.1","7","0.00","0.00"
"20:29:58","62.8","57.6","83","30.03","156","4","13","0.00","0.00"
"20:34:59","62.7","57.2","82.3","30.03","131","2.8","11.5","0.00","0.00"
"20:39:59","62.6","57","82","30.03","148","3.2","9.2","0.00","0.00"
"20:44:57","62.5","56.9","82","30.03","128","4.7","10.4","0.00","0.00"
"20:49:58","62.4","56.8","82","30.03","120","2.5","5","0.00","0.00"
"20:54:56","62.2","56.4","81.1","30.03","125","3","8.1","0.00","0.00"
"20:59:58","62.1","56.2","81","30.03","128","3.7","10.4","0.00","0.00"
"21:04:58","62","56.1","81","30.03","152","2.9","9.2","0.00","0.00"
"21:09:58","61.9","56","81","30.03","123","2.6","6","0.00","0.00"
"21:14:57","61.9","56","81","30.03","140","2.2","6","0.00","0.00"
"21:19:59","61.9","56","81","30.02","129","1.7","5","0.00","0.00"
"21:24:56","61.9","56","81","30.02","128","4","7","0.00","0.00"
"21:29:58","62","56.1","80.9","30.02","116","3.1","6.9","0.00","0.00"
"21:34:59","62.1","56","80.1","30.02","150","3.4","7","0.00","0.00"
"21:39:58","62.2","56","80","30.02","150","3.1","6","0.00","0.00"
"21:44:55","62.3","56","80","30.02","147","3.5","10","0.00","0.00"
"21:49:57","62.4","56.1","80","30.01","153","4.1","10","0.00","0.00"
"21:54:58","62.5","56.2","80","30.01","103","3.5","10.4","0.00","0.00"
"21:59:56","62.4","56.1","80","30.01","155","3.8","7","0.00","0.00"
"22:04:56","62.4","56.1","80","30.01","137","3","7","0.00","0.00"
"22:09:56","62.4","56.1","80","30.01","130","3.4","6.9","0.00","0.00"
"22:14:59","62.4","56.1","80","30.01","115","3.4","7","0.00","0.00"
"22:19:56","62.4","56.1","80","30.01","125","4.1","11","0.00","0.00"
"22:24:59","62.4","56.1","80","30.01","139","2.4","11.5","0.00","0.00"
"22:29:59","62.3","56","80","30.01","145","3.2","7","0.00","0.00"
"22:34:57","62.2","56","80","30.01","135","3.6","9.2","0.00","0.00"
"22:39:59","62.1","56.1","80.6","30.01","134","4.1","11","0.00","0.00"
"22:44:56","62.1","56.1","80.7","30.01","111","2.4","12","0.00","0.00"
"22:49:57","62","56.1","81","30.00","136","3.4","11.5","0.00","0.00"
"22:54:59","62","56.1","81","30.00","145","2.7","9","0.00","0.00"
"22:59:57","61.9","56","81","30.00","136","3.5","9.2","0.00","0.00"
"23:04:57","61.8","56.1","81.4","29.99","129","3.5","9.2","0.00","0.00"
"23:09:57","61.7","56.1","82","29.99","125","1.6","4","0.00","0.00"
"23:14:56","61.5","56","82","29.99","130","3.5","8.1","0.00","0.00"
"23:19:58","61.4","56.1","82.5","29.98","128","3","8","0.00","0.00"
"23:24:56","61.4","56.2","83","29.98","108","2.7","8.1","0.00","0.00"
"23:29:58","61.3","56.1","83","29.98","146","2.8","6","0.00","0.00"
"23:34:56","61.2","56","83","29.98","157","3.1","7","0.00","0.00"
"23:39:56","61.2","56.2","83.8","29.98","115","3.5","8.1","0.00","0.00"
"23:44:58","61.1","56.2","84","29.98","131","3.7","9.2","0.00","0.00"
"23:49:59","61.1","56.2","84","29.96","133","3.5","9.2","0.00","0.00"
"23:54:56","61.1","56.2","84","29.96","121","3.7","7","0.00","0.00"
"23:59:58","61.2","56.3","84","29.96","140","3.6","8.1","0.00","0.00"
